Wind_Speed
21 23 26 27 28 28 30 31 33 36 39 41 43 44 45 45 45 46 48 51 52 54 56 59 62 65 67 69 70 72 74 76 76 76 75 71 66 61 58 53 48 44 42 41
22 24 27 29 29 31 32 33 36 38 41 43 46 48 49 51 53 56 59 62 65 66 67 69 70 72 74 76 77 76 78 79 78 75 74 73 69 65 62 58 54 50 47 46
24 26 29 30 29 32 33 34 36 40 45 48 51 54 57 59 62 65 69 72 76 78 80 81 82 82 84 85 85 86 86 87 87 86 84 83 81 78 74 68 62 57 54 51
24 26 27 28 30 32 35 37 41 47 50 54 58 61 64 68 72 75 77 79 80 81 81 80 78 77 77 78 79 82 84 87 89 90 89 86 84 82 78 73 67 62 56 52
24 26 30 30 33 37 41 44 48 52 56 60 64 67 71 75 78 79 78 75 70 65 60 55 52 50 49 49 50 52 55 59 62 66 69 69 69 70 69 67 65 62 58 53
26 27 30 35 37 41 46 51 55 58 62 67 71 74 75 77 76 70 60 52 45 40 38 37 38 39 40 40 40 40 41 42 42 42 43 44 47 51 54 57 58 56 54 51
27 30 33 36 40 44 49 54 58 62 67 71 75 77 76 68 55 46 39 35 35 36 39 41 42 43 43 44 44 44 44 43 41 38 36 34 34 36 41 46 50 52 52 50
30 33 38 42 45 50 54 59 63 67 71 75 76 71 59 46 38 35 35 37 40 42 43 44 45 46 46 47 47 48 48 46 43 39 34 30 28 29 31 35 41 47 51 53
34 36 41 46 50 54 58 62 66 71 76 77 71 57 42 35 34 36 40 43 45 46 46 47 48 49 49 49 50 50 50 48 45 42 37 32 27 26 27 28 31 36 45 53
37 40 44 48 52 56 60 65 71 76 78 73 59 44 36 35 37 40 43 46 49 49 49 50 51 52 53 52 51 51 51 48 45 42 39 35 30 26 24 24 25 28 33 45
42 45 48 52 56 60 64 69 74 78 75 63 48 38 37 38 41 44 47 50 51 52 52 52 52 53 53 52 51 51 48 46 45 43 40 37 32 28 25 24 24 26 29 37
44 48 51 55 59 63 67 71 76 77 69 53 42 38 39 42 46 49 51 53 54 54 54 53 52 51 49 49 48 47 44 41 40 41 40 38 34 30 27 26 26 27 30 33
47 50 54 58 61 65 69 74 77 73 62 47 39 38 42 46 49 52 54 55 55 55 54 52 50 47 46 45 44 41 37 33 32 35 36 36 33 31 29 28 29 30 32 34
51 54 56 59 62 66 71 75 76 68 55 44 39 40 44 49 52 54 56 56 56 55 53 50 47 44 42 40 37 33 28 25 25 28 31 32 31 30 29 29 30 33 35 36
51 55 57 60 63 67 72 76 74 64 51 41 39 42 47 51 53 54 55 55 54 52 49 45 42 39 36 33 29 24 19 16 17 21 25 26 27 27 28 29 30 33 36 38
52 55 58 61 64 68 74 77 74 61 46 38 39 44 49 52 54 54 53 53 51 47 43 40 36 33 30 25 20 14 7 8 13 18 21 22 23 24 24 25 28 31 35 39
52 55 59 62 65 69 75 76 69 56 43 39 42 47 50 53 52 51 51 49 47 44 39 35 31 28 23 18 11 5 3 9 13 17 19 19 19 19 21 22 25 30 35 40
53 56 60 63 66 70 75 74 65 51 42 42 45 49 51 52 50 49 48 46 45 40 36 31 27 23 18 13 9 8 9 13 16 17 17 17 17 18 20 23 27 33 39 41
53 56 59 63 66 70 74 73 62 48 42 43 47 50 52 51 48 47 47 45 44 39 34 28 24 20 17 14 13 15 16 18 18 19 20 21 22 24 26 29 34 39 42 42
52 55 58 62 66 69 73 71 60 46 42 44 48 50 50 48 46 46 44 44 43 39 33 27 23 20 19 19 19 21 22 23 25 26 27 28 30 31 33 36 39 41 41 40
51 54 57 61 64 68 71 70 60 46 41 44 48 49 47 45 44 43 42 42 40 36 31 26 24 23 23 24 26 27 29 30 32 33 35 35 35 36 37 39 40 40 39 37
50 53 56 60 63 66 69 68 58 46 41 43 46 46 43 41 41 41 41 41 39 36 31 27 27 27 29 31 32 34 35 36 37 37 36 35 35 37 38 38 37 35 34 33
49 52 54 58 61 65 67 66 56 43 38 41 43 42 40 39 39 39 39 38 37 35 33 31 31 32 33 34 35 36 36 36 36 36 35 34 34 34 34 34 33 31 30 30
48 50 53 56 60 62 65 63 53 40 35 38 39 38 35 34 34 35 35 34 35 35 34 34 33 34 34 34 34 34 33 33 33 32 31 30 29 29 29 28 27 27 27 27
47 49 51 55 57 60 62 62 52 37 31 33 34 33 31 29 29 30 30 30 30 30 30 30 30 31 32 31 31 30 30 29 28 27 27 26 25 24 24 23 23 23 22 22
46 47 50 53 56 58 60 60 52 37 28 28 29 27 25 23 23 24 24 25 24 25 25 25 25 26 26 27 27 26 26 25 25 24 23 22 21 21 20 20 20 19 19 19
45 46 49 52 54 56 57 58 52 39 28 24 24 23 21 19 17 17 19 19 19 18 19 20 20 20 20 21 21 21 21 21 20 19 19 19 19 19 18 18 17 17 17 17
Wind_Direction
316 314 313 313 314 313 311 310 307 304 303 304 304 304 302 299 296 294 293 291 289 286 284 282 280 278 276 274 273 273 271 268 266 265 264 264 264 263 263 263 265 267 271 276
319 317 315 316 318 314 313 311 310 309 308 308 307 306 304 303 301 298 295 292 290 286 283 279 276 273 271 270 267 265 264 263 263 262 260 261 260 262 263 264 267 268 271 274
324 322 319 321 320 315 314 315 314 313 311 309 309 308 307 304 299 295 292 290 288 286 284 282 280 277 275 274 273 271 269 268 268 267 267 268 269 269 270 270 271 270 270 270
326 322 321 322 319 317 317 318 315 313 312 312 312 310 308 304 301 298 295 292 290 289 288 288 287 286 284 282 280 278 276 274 273 272 271 271 271 272 271 271 269 268 266 265
329 326 323 325 322 321 320 319 316 316 316 315 313 311 309 306 303 301 299 299 298 298 298 298 297 295 294 293 291 289 285 282 279 277 275 273 271 269 267 266 264 262 260 258
332 329 326 325 323 323 321 320 320 320 319 317 315 313 310 307 305 305 306 306 307 307 307 306 306 304 304 302 301 299 297 294 292 288 283 277 271 265 261 257 253 250 248 245
330 326 324 323 323 322 322 322 321 321 320 320 318 316 313 312 312 312 314 315 315 313 311 309 306 304 302 299 296 294 292 291 290 290 287 282 276 269 260 252 245 238 233 229
329 328 326 324 323 324 324 324 324 323 324 323 322 319 318 318 319 318 317 315 313 311 309 307 305 303 301 299 295 292 289 285 282 281 281 281 278 270 263 254 244 234 226 218
331 329 326 325 325 326 326 326 325 326 328 327 325 324 322 320 319 317 316 315 313 310 309 307 304 302 300 298 295 291 287 282 277 273 271 272 273 270 263 256 247 236 226 216
330 328 328 327 325 326 328 329 330 331 331 330 327 325 322 321 320 319 318 317 315 312 309 308 305 302 300 298 296 293 288 280 272 266 263 262 262 263 260 253 245 233 223 215
330 328 329 329 330 331 332 332 333 333 333 330 326 325 323 323 322 321 321 320 318 315 312 309 305 303 300 298 296 294 289 280 268 259 254 251 251 252 251 245 238 225 219 216
331 330 331 333 334 334 334 334 335 336 334 329 326 325 325 325 325 324 323 321 319 317 315 313 309 306 303 301 299 295 289 279 265 254 246 242 241 241 241 237 231 224 220 218
332 333 334 335 336 335 336 337 338 338 335 330 327 326 327 327 327 327 325 323 321 319 318 316 312 308 306 304 302 297 290 277 260 246 238 234 233 234 235 232 227 223 220 218
334 334 336 337 337 337 338 340 341 340 336 331 329 328 328 329 329 329 327 326 324 322 321 318 314 311 309 308 306 299 288 273 253 236 227 226 226 228 230 228 224 221 218 215
333 334 336 338 339 339 341 343 344 343 339 335 332 331 331 332 332 331 330 329 327 325 324 322 320 317 315 314 310 302 286 261 233 217 213 214 217 222 225 225 222 219 215 211
334 336 338 340 341 342 344 345 345 346 343 340 337 336 336 335 335 335 334 333 331 330 330 328 328 327 326 325 321 311 279 216 195 193 197 201 207 213 217 217 214 209 203 197
335 337 339 341 342 344 345 347 348 348 346 344 342 340 340 339 339 339 338 338 337 337 336 335 337 338 340 342 348 5 131 157 166 173 180 186 195 201 201 198 190 187 184 182
336 338 340 341 343 345 347 349 350 348 347 346 345 345 344 345 345 345 345 344 345 345 345 347 350 356 4 17 42 81 117 136 147 155 161 166 167 164 162 161 165 169 169 170
336 339 341 342 344 346 348 351 351 350 349 349 349 350 351 351 352 352 352 353 354 357 359 2 11 21 34 53 77 97 113 123 129 131 132 131 130 132 136 142 147 152 157 161
336 339 341 343 345 347 349 352 352 351 350 351 353 355 356 358 359 0 2 3 6 9 14 21 33 46 62 77 87 97 104 108 110 111 113 115 119 124 130 135 140 145 149 153
336 339 341 344 346 347 350 352 353 352 352 354 357 359 1 4 6 9 11 13 16 20 29 40 54 68 78 85 91 96 100 103 106 111 115 117 118 122 128 133 137 141 145 149
336 338 341 344 347 348 351 353 354 354 354 356 359 1 5 10 14 17 19 21 25 30 41 57 69 77 84 89 94 98 102 106 110 113 115 118 122 126 130 134 137 141 145 149
336 338 341 344 347 349 352 354 356 355 354 355 360 4 9 14 19 23 27 29 35 44 56 68 77 82 87 91 96 101 106 111 114 117 120 121 124 129 133 135 138 142 146 150
335 338 341 344 347 350 352 356 356 356 354 355 359 4 12 19 24 28 33 38 46 56 64 72 78 82 85 89 93 98 104 110 115 118 122 125 128 132 135 137 140 144 148 153
335 338 341 344 347 349 352 355 357 356 353 354 358 4 12 20 27 32 37 43 49 57 64 71 78 81 84 88 91 95 100 105 110 115 120 124 128 132 136 137 139 142 147 152
335 338 341 343 346 349 352 355 357 356 353 353 357 4 12 19 26 32 38 44 51 57 64 72 78 81 85 89 92 95 100 106 111 116 122 127 131 135 138 140 142 145 149 153
334 337 340 342 345 348 351 354 356 355 352 350 355 3 10 17 23 30 36 41 47 54 62 71 79 84 89 92 96 100 104 108 114 121 129 137 145 150 153 154 154 154 155 155
Height
5845 5841 5837 5833 5830 5826 5823 5819 5815 5809 5803 5797 5790 5785 5779 5773 5767 5761 5755 5749 5742 5737 5731 5726 5720 5715 5710 5706 5702 5699 5696 5693 5691 5690 5690 5690 5691 5693 5696 5698 5701 5703 5704 5706
5840 5836 5832 5827 5824 5820 5816 5811 5806 5800 5794 5788 5780 5773 5767 5759 5752 5745 5738 5731 5724 5717 5711 5705 5699 5693 5687 5683 5679 5675 5673 5670 5666 5665 5665 5666 5668 5671 5674 5678 5682 5686 5689 5692
5836 5831 5826 5822 5819 5813 5808 5804 5799 5792 5786 5777 5769 5761 5753 5745 5736 5728 5720 5711 5701 5692 5684 5678 5672 5666 5661 5657 5653 5650 5647 5645 5642 5641 5641 5642 5644 5647 5651 5655 5661 5667 5672 5676
5831 5827 5823 5821 5813 5807 5802 5797 5790 5781 5773 5764 5755 5745 5736 5725 5713 5703 5693 5683 5673 5664 5655 5648 5642 5636 5632 5628 5624 5620 5618 5616 5614 5613 5614 5615 5618 5620 5625 5631 5638 5646 5652 5658
5827 5822 5815 5813 5806 5798 5791 5785 5777 5768 5759 5749 5739 5729 5718 5703 5689 5676 5665 5655 5645 5637 5630 5624 5618 5613 5608 5605 5600 5596 5592 5589 5587 5586 5586 5588 5590 5594 5598 5605 5613 5621 5631 5639
5821 5816 5812 5805 5798 5789 5782 5773 5763 5754 5744 5733 5721 5709 5699 5682 5666 5653 5642 5634 5627 5621 5615 5610 5605 5600 5595 5591 5586 5582 5578 5574 5571 5568 5567 5566 5567 5569 5573 5578 5586 5596 5607 5617
5817 5811 5805 5799 5791 5784 5775 5767 5755 5742 5730 5716 5702 5686 5672 5658 5646 5636 5628 5622 5617 5611 5605 5599 5593 5588 5583 5578 5574 5570 5566 5562 5560 5557 5555 5553 5553 5553 5554 5557 5563 5572 5583 5596
5811 5805 5798 5789 5780 5772 5763 5751 5739 5727 5713 5699 5683 5666 5651 5640 5632 5626 5620 5614 5608 5601 5595 5587 5580 5574 5568 5563 5558 5553 5550 5547 5546 5545 5544 5543 5542 5542 5541 5542 5546 5553 5563 5576
5806 5800 5790 5780 5770 5761 5751 5739 5726 5711 5696 5679 5663 5650 5639 5632 5625 5618 5611 5604 5596 5588 5581 5574 5566 5558 5552 5546 5540 5535 5531 5529 5529 5530 5531 5531 5532 5531 5532 5532 5534 5539 5547 5558
5798 5790 5782 5773 5762 5752 5740 5726 5711 5695 5678 5662 5648 5638 5630 5623 5616 5609 5601 5592 5583 5575 5566 5559 5550 5542 5534 5527 5520 5515 5511 5509 5509 5512 5515 5518 5521 5522 5523 5525 5527 5531 5537 5546
5790 5781 5773 5763 5751 5739 5726 5712 5696 5680 5663 5647 5636 5628 5621 5615 5607 5599 5590 5580 5570 5560 5551 5542 5533 5524 5516 5507 5500 5494 5490 5487 5489 5493 5498 5504 5509 5512 5515 5518 5521 5525 5531 5538
5783 5773 5763 5753 5740 5728 5715 5701 5685 5668 5652 5637 5627 5620 5613 5606 5597 5587 5577 5567 5556 5545 5535 5525 5515 5506 5497 5489 5481 5474 5470 5468 5469 5474 5481 5488 5496 5502 5506 5511 5515 5520 5526 5533
5774 5765 5754 5743 5731 5718 5704 5689 5673 5655 5639 5628 5620 5613 5605 5596 5587 5576 5565 5553 5541 5529 5518 5507 5498 5489 5480 5472 5464 5457 5453 5451 5453 5458 5466 5475 5483 5491 5497 5502 5507 5514 5520 5528
5765 5755 5746 5735 5723 5709 5695 5679 5662 5645 5630 5619 5613 5606 5597 5587 5576 5565 5552 5540 5527 5515 5503 5492 5482 5474 5465 5456 5449 5443 5440 5439 5441 5446 5455 5464 5473 5480 5487 5493 5499 5506 5514 5522
5761 5749 5739 5727 5715 5701 5685 5669 5652 5637 5624 5615 5607 5599 5589 5578 5567 5554 5541 5527 5514 5502 5491 5480 5470 5461 5452 5444 5437 5432 5430 5430 5434 5440 5448 5457 5465 5472 5478 5484 5490 5496 5505 5515
5755 5743 5731 5719 5707 5693 5677 5661 5644 5630 5618 5610 5602 5593 5582 5570 5557 5544 5531 5517 5503 5491 5481 5470 5461 5452 5444 5436 5430 5426 5425 5427 5431 5438 5445 5452 5459 5465 5471 5476 5481 5488 5497 5508
5748 5737 5725 5713 5700 5686 5670 5653 5637 5623 5613 5606 5597 5588 5576 5563 5550 5537 5523 5509 5496 5484 5473 5463 5454 5446 5439 5433 5428 5426 5426 5429 5433 5439 5445 5451 5457 5461 5466 5471 5477 5484 5494 5506
5741 5730 5718 5706 5693 5680 5665 5649 5632 5619 5610 5602 5593 5582 5570 5557 5543 5531 5517 5504 5492 5479 5468 5459 5451 5444 5439 5434 5431 5430 5431 5433 5437 5442 5447 5452 5457 5461 5465 5471 5477 5486 5496 5509
5735 5724 5713 5701 5687 5674 5659 5644 5629 5616 5607 5599 5590 5578 5566 5553 5540 5528 5514 5502 5489 5477 5467 5459 5452 5447 5443 5439 5438 5437 5438 5441 5445 5449 5453 5457 5461 5466 5471 5476 5484 5494 5506 5518
5729 5719 5708 5696 5683 5669 5655 5640 5626 5614 5605 5597 5587 5576 5565 5553 5541 5529 5516 5503 5491 5479 5470 5462 5457 5453 5450 5448 5447 5448 5449 5451 5455 5458 5462 5465 5470 5475 5481 5488 5497 5507 5518 5528
5724 5714 5703 5692 5679 5666 5652 5637 5624 5612 5604 5596 5586 5576 5565 5555 5543 5532 5520 5509 5498 5487 5478 5472 5467 5464 5461 5460 5459 5460 5461 5464 5467 5470 5474 5479 5484 5489 5496 5503 5512 5520 5529 5537
5718 5709 5699 5688 5675 5662 5649 5635 5622 5611 5603 5596 5588 5579 5569 5560 5549 5538 5527 5517 5507 5497 5490 5484 5480 5477 5475 5474 5474 5475 5476 5478 5481 5485 5489 5494 5499 5504 5511 5518 5525 5532 5539 5546
5713 5703 5694 5683 5672 5659 5646 5633 5620 5610 5603 5596 5590 5581 5573 5564 5555 5546 5538 5529 5520 5511 5505 5500 5496 5494 5492 5491 5490 5491 5492 5495 5497 5501 5505 5509 5514 5519 5524 5530 5536 5541 5547 5554
5707 5699 5689 5679 5668 5657 5645 5633 5621 5611 5604 5598 5591 5584 5577 5571 5564 5556 5548 5542 5535 5528 5522 5517 5513 5511 5509 5508 5508 5508 5509 5511 5513 5516 5520 5523 5527 5532 5536 5540 5545 5550 5555 5560
5702 5694 5685 5676 5666 5655 5644 5632 5622 5613 5607 5601 5595 5588 5582 5575 5570 5564 5559 5553 5548 5543 5537 5533 5530 5527 5525 5524 5524 5524 5524 5526 5528 5530 5533 5536 5539 5542 5546 5549 5553 5557 5561 5565
5697 5689 5680 5671 5662 5652 5642 5631 5621 5613 5607 5603 5597 5591 5585 5580 5575 5571 5567 5563 5558 5554 5550 5546 5543 5540 5539 5537 5536 5536 5537 5538 5539 5541 5543 5545 5548 5551 5553 5556 5560 5563 5566 5570
5691 5684 5676 5667 5658 5649 5639 5630 5620 5612 5606 5602 5598 5593 5588 5583 5579 5575 5572 5569 5565 5562 5559 5556 5553 5551 5549 5548 5547 5546 5546 5547 5548 5549 5550 5552 5554 5556 5559 5561 5564 5567 5570 5573